Location: Churchill Northern Studies Centre
(58.7378°N, 93.8201°W)
Time: 04:00:31
(UTC-06:00)

Vanguard 2 Rocket - All Passes

Search period start: 23 February 2018 00:00
Search period end: 05 March 2018 00:00
Orbit: 555 x 3327 km, 32.9° (Epoch: 22 February)

Date Brightness Start Highest point End Pass type
(mag) Time Alt. Az. Time Alt. Az. Time Alt. Az.
23 Feb - 00:20:50 10° SW 00:31:49 26° S 00:45:50 10° SE visible
23 Feb - 02:33:37 10° WSW 02:45:30 24° SSW 02:59:09 10° SSE visible
23 Feb - 04:51:58 10° WSW 04:58:41 13° SW 05:05:35 10° SSW visible
23 Feb - 21:15:25 10° SSE 21:19:53 12° SE 21:25:03 10° ESE visible
23 Feb - 23:22:15 10° SSW 23:31:49 23° SSE 23:44:22 10° ESE visible
24 Feb - 01:33:49 10° SW 01:45:12 25° S 01:59:06 10° SE visible
24 Feb - 03:49:16 10° WSW 03:58:41 17° SSW 04:08:52 10° S visible
24 Feb - 22:24:16 10° SSW 22:32:08 20° SSE 22:42:23 10° ESE night (unlit)
25 Feb - 00:34:33 10° SW 00:45:00 25° S 00:58:26 10° SE visible
25 Feb - 02:48:14 10° WSW 02:58:32 20° SSW 03:10:21 10° SSE visible
25 Feb - 21:27:10 10° S 21:32:48 15° SSE 21:39:45 10° ESE visible
25 Feb - 23:35:47 10° SW 23:45:00 23° S 23:57:15 10° SE night (unlit)
26 Feb - 01:48:06 10° WSW 01:58:21 21° SSW 02:10:49 10° SSE visible
26 Feb - 04:06:41 10° SW 04:11:31 12° SW 04:16:35 10° SSW visible
26 Feb - 22:37:31 10° SSW 22:45:18 20° SSE 22:55:38 10° SE visible
27 Feb - 00:48:37 10° SW 00:58:15 22° S 01:10:33 10° SSE visible
27 Feb - 03:03:51 10° WSW 03:11:34 15° SSW 03:20:11 10° S visible
27 Feb - 21:39:55 10° S 21:45:54 16° SSE 21:53:33 10° ESE visible
27 Feb - 23:49:40 10° SW 23:58:18 22° S 00:09:44 10° SE night (unlit)
28 Feb - 02:03:02 10° SW 02:11:32 17° SSW 02:21:37 10° S visible
28 Feb - 20:43:43 10° SSE 20:46:49 12° SSE 20:50:21 10° SE visible
28 Feb - 22:51:12 10° SSW 22:58:35 20° S 23:08:28 10° SE visible
01 Mar - 01:03:11 10° SW 01:11:32 19° SSW 01:21:59 10° SSE visible
01 Mar - 21:53:18 10° SSW 21:59:10 17° SSE 22:06:49 10° SE visible
02 Mar - 00:03:59 10° SW 00:11:41 19° S 00:21:39 10° SSE night (unlit)
02 Mar - 02:19:32 10° SW 02:24:43 12° SSW 02:30:30 10° S visible
02 Mar - 20:56:17 10° S 21:00:02 13° SSE 21:04:30 10° SE visible
02 Mar - 23:05:18 10° SW 23:12:00 18° S 23:20:49 10° SE visible
03 Mar - 01:18:39 10° SW 01:24:52 14° SSW 01:32:14 10° S night (unlit)
03 Mar - 22:07:08 10° SSW 22:12:35 16° S 22:19:35 10° SE visible
04 Mar - 00:18:57 10° SW 00:25:06 15° SSW 00:32:43 10° SSE night (unlit)
04 Mar - 21:09:43 10° S 21:13:25 13° SSE 21:17:49 10° SE visible
04 Mar - 23:19:56 10° SW 23:25:30 15° S 23:32:28 10° SSE visible
